Flag for U.S.A. Weather past 2 weeks in Fort Lauderdale, Florida, U.S.A.

Now
83 °F

Broken clouds.


Feels Like: 87 °F
Forecast: 78 / 85 °F
Wind: 22 mph from East

Location: Fort Lauderdale / Hollywood International Airport

Current Time: May 27, 2015 at 10:50:51 AM

Latest Report: May 27, 2015 at 9:53 AM


Visibility: 10 mi

Pressure: 30.11 "Hg

Humidity: 65%

Dew point: 70 °F

Location of Fort LauderdaleLocation

Historic Weather in Fort Lauderdale — Graph

°F

Fort Lauderdale temperature yesterday

Maximum temperature yesterday: 86 °F (at 12:53 PM)
Minimum temperature yesterday: 80 °F (at 2:53 AM)
Average temperature yesterday: 82 °F

Past Weeks' High & Low Weather Summary

 TemperatureHumidityPressure
High90 °F (May 21, 12:53 PM)94% (May 20, 4:53 AM)30.20 "Hg (May 20, 4:53 AM)
Low74 °F (May 20, 4:53 AM)49% (May 20, 3:53 PM)29.93 "Hg (May 20, 6:53 PM)
Average81 °F73%30.10 "Hg
* Reported May 12 8:53 AM — May 27 8:53 AM, Fort Lauderdale, Weather by CustomWeather, © 2015

Note: Actual official high and low records may vary slightly from our data, if they occured in-between our weather recording intervals... More about our weather records

Advertising

Fort Lauderdale weather history for previous 24 hours

 ConditionsComfort  
Time TempWeatherWind HumidityBarometerVisibility
8:53 AM
Wed, May 27
81 °FPassing clouds.21 mph69%30.11 "Hg10 mi
7:53 AM80 °FPassing clouds.17 mph71%30.10 "Hg10 mi
6:53 AM78 °FPassing clouds.15 mph74%30.09 "Hg10 mi
5:53 AM78 °FPassing clouds.17 mph74%30.09 "Hg10 mi
4:53 AM79 °FPassing clouds.12 mph74%30.09 "Hg10 mi
3:53 AM79 °FPassing clouds.12 mph74%30.10 "Hg10 mi
2:53 AM79 °FPassing clouds.12 mph69%30.12 "Hg10 mi
1:53 AM79 °FPassing clouds.15 mph69%30.14 "Hg10 mi
12:53 AM80 °FPassing clouds.12 mph69%30.15 "Hg10 mi
11:53 PM
Tue, May 26
80 °FPassing clouds.14 mph71%30.16 "Hg10 mi
10:53 PM80 °FPassing clouds.14 mph71%30.15 "Hg10 mi
9:53 PM80 °FPassing clouds.14 mph71%30.14 "Hg10 mi
8:53 PM81 °FScattered clouds.13 mph72%30.11 "Hg10 mi
7:53 PM81 °FPassing clouds.14 mph69%30.11 "Hg10 mi
6:53 PM82 °FPassing clouds.15 mph72%30.11 "Hg10 mi
5:53 PM84 °FScattered clouds.14 mph70%30.12 "Hg10 mi
4:53 PM84 °FPartly sunny.15 mph70%30.12 "Hg10 mi
3:53 PM84 °FBroken clouds.18 mph67%30.14 "Hg10 mi
2:53 PM86 °FPartly sunny.18 mph65%30.14 "Hg10 mi
1:53 PM86 °FPartly sunny.20 mph63%30.16 "Hg10 mi
12:53 PM86 °FBroken clouds.20 mph65%30.17 "Hg10 mi
11:53 AM85 °FBroken clouds.18 mph70%30.18 "Hg10 mi
10:53 AM84 °FPartly sunny.16 mph72%30.19 "Hg10 mi
Weather by CustomWeather, © 2015

See weather overviewHow to use our weather pages